Location: Stuttgart
(48.8069°N, 9.1544°E)
Time: 05:45:41
(UTC+01:00)

ISS - Pass Details

Date: 07 January 2018
Orbit: 401 x 406 km, 51.6° (Epoch: 17 January)

Event Time Altitude Azimuth Distance (km) Brightness Sun altitude
Exits shadow 05:58:09 41° 39° (NE) 605 -2.8 -21.7°
Drops below altitude 10° 06:00:42 10° 76° (ENE) 1,468 -0.1 -21.3°
Sets 06:02:50 0° 82° (E) 2,329 1.3 -20.9°
